Location: Mentone
(34.5413°N, 85.5351°W)
Time: 12:17:37
(UTC-06:00)

Vanguard 2 Rocket - Visible Passes

Search period start: 07 December 2016 00:00
Search period end: 17 December 2016 00:00
Orbit: 554 x 3328 km, 32.9° (Epoch: 06 December)

Date Brightness Start Highest point End Pass type
(mag) Time Alt. Az. Time Alt. Az. Time Alt. Az.
08 Dec 11.4 05:25:23 10° S 05:34:58 16° SE 05:42:59 10° ESE visible
09 Dec 11.6 04:31:02 10° SSE 04:33:56 10° SE 04:36:43 10° SE visible
10 Dec 11.1 05:35:29 10° SSW 05:49:42 26° SSE 06:00:38 10° E visible
11 Dec 11.3 04:36:43 10° S 04:48:38 19° SE 04:58:48 10° ESE visible
12 Dec 11.4 03:40:37 10° SSE 03:47:32 13° SE 03:54:04 10° ESE visible
12 Dec 10.7 05:47:22 10° SSW 06:04:18 37° SSE 06:16:42 10° E visible
13 Dec 10.9 04:47:28 10° SSW 05:03:08 29° SE 05:15:55 10° E visible
14 Dec 11.1 03:48:45 10° S 04:01:58 22° SE 04:13:51 10° E visible
14 Dec 10.3 06:00:12 10° SW 06:18:51 49° SSE 06:32:07 10° E visible
15 Dec 11.2 02:52:19 10° SSE 03:00:54 14° SE 03:09:15 10° ESE visible
15 Dec 10.5 04:59:37 10° SSW 05:17:31 40° SSE 05:31:47 10° E visible
16 Dec 10.7 03:59:56 10° SSW 04:16:13 32° SE 04:30:39 10° E visible
16 Dec 10.0 06:13:44 10° SW 06:33:23 61° SSE 06:47:11 10° E visible
